sat.trackr.live / text

‹ back to catalog

STARLINK-2567

NORAD 48276 · 2021-036A

PAYLOAD ACTIVE UNKNOWN

§ Identity

Operator
Country
US
Launch date
2021-04-29
Launch site
AFETR
Launch vehicle
Mass (kg)
RCS (m²)

Purposes: comms

External: N2YO · Heavens-Above · Gunter

§ Orbital elements

Epoch: 2026-09-19T12:53:05.700192Z

Period
94.01 min
Inclination
53.1587°
Eccentricity
0.0001413
Mean motion
15.31698161 rev/d
Perigee alt
469.8 km
Apogee alt
471.7 km
Semi-major
6,848.9 km
B*
-1.1868e-5
RAAN
228.7976°
Arg perigee
86.7444°
Mean anomaly
273.3719°
Rev number
29,844

§ Raw data

STARLINK-25671 48276U 21036A   26262.53687153 -.00000733  00000+0 -11868-4 0  99972 48276  53.1587 228.7976 0001413  86.7444 273.3719 15.31698161298441

JSON: /api/v1/satellites/48276 · /tle

For live sub-satellite position, see the globe view (requires WebGL).

§ Visibility from observer

Set your observer location to see the next 7 days of passes ≥ 10°. The values pass through the URL so the page stays shareable.

No JS? Fill the form by hand. The geolocation button needs JavaScript.